Wind_Speed
42 43 43 43 42 41 42 43 44 43 42 41 42 42 42 41 41 40 40 40 40 41 40 40 40 40 41 42 43 43 42 42 41 41 41 41 40 40 40 40 41 41 41 42
41 42 43 44 43 43 42 42 42 42 40 39 40 40 40 39 39 39 39 40 40 40 40 40 41 41 41 41 41 41 41 40 40 41 40 39 39 38 39 39 39 39 40 39
40 40 42 42 41 41 42 41 41 41 39 38 38 38 39 38 38 39 39 40 40 39 39 40 40 40 40 40 40 40 40 40 40 40 40 39 39 39 40 38 37 38 38 37
41 40 43 40 39 39 40 39 39 39 38 38 38 38 38 39 39 39 39 40 41 41 41 40 40 39 39 39 39 39 39 39 40 40 39 38 38 38 38 37 36 36 35 34
40 42 42 40 38 37 38 38 37 37 37 37 38 39 39 39 40 40 40 40 41 41 41 40 39 38 38 38 38 38 37 38 38 38 37 36 35 35 35 35 35 33 32 32
37 38 39 38 37 38 39 39 37 37 36 36 37 38 38 38 39 39 39 39 39 39 38 38 37 37 37 37 37 37 38 38 38 37 36 35 35 35 34 34 33 31 30 30
33 35 36 35 35 36 38 37 37 37 37 36 36 36 36 37 38 37 37 37 37 37 37 37 37 36 36 36 36 37 37 37 37 37 36 35 35 35 34 32 31 30 30 29
31 32 32 31 32 34 35 35 34 35 35 35 34 34 34 35 36 36 36 36 36 36 36 37 37 37 36 36 36 36 37 37 37 37 37 36 35 33 32 31 30 30 29 28
29 30 30 31 32 32 33 33 32 32 32 33 33 33 34 34 34 34 35 35 35 35 35 35 36 35 35 34 35 35 35 35 36 36 35 34 33 31 31 30 29 29 28 26
28 27 28 29 31 31 31 31 31 30 30 31 31 32 32 33 34 34 34 35 34 34 33 33 33 33 33 33 33 33 33 33 33 33 32 31 30 30 29 28 27 26 26 25
27 27 27 27 28 29 29 29 29 30 29 29 29 30 31 31 32 33 33 33 33 32 32 32 31 31 32 32 32 31 31 30 29 29 28 28 28 28 27 26 26 25 24 24
26 26 27 26 27 28 28 29 29 29 29 29 29 29 29 30 30 31 31 31 31 30 30 30 30 30 30 30 30 30 29 28 27 26 26 26 26 26 25 25 24 24 23 23
26 26 26 25 25 26 27 27 27 28 29 28 28 28 29 29 29 29 28 28 28 27 27 27 27 27 27 27 27 27 26 26 26 25 25 25 25 24 24 23 23 23 22 21
25 25 25 24 25 25 25 26 26 26 27 27 27 28 27 27 27 26 26 25 25 25 24 24 24 24 25 25 24 24 24 24 24 24 24 23 23 23 23 22 22 22 21 21
24 25 24 24 25 25 25 26 26 26 26 26 27 27 27 26 26 25 25 24 24 24 23 23 22 22 22 22 22 22 22 22 22 21 21 21 21 21 21 21 21 21 20 19
22 23 23 24 24 25 25 27 27 27 27 27 26 26 26 25 25 24 24 24 24 23 23 22 22 21 21 20 20 20 20 20 20 19 19 19 19 19 19 19 19 18 18 17
21 21 22 23 23 24 25 26 27 27 27 27 27 26 25 25 24 24 24 23 23 22 22 21 21 20 20 19 19 19 18 18 17 17 16 16 16 15 15 15 16 16 16 16
21 21 21 22 22 24 25 26 26 26 26 26 26 25 24 24 24 24 23 22 22 21 20 20 19 18 18 18 17 17 16 15 14 14 13 13 13 13 13 13 14 14 14 14
20 21 22 23 23 24 24 25 25 25 25 25 25 24 24 23 23 22 21 20 20 19 19 18 17 16 16 15 15 14 13 13 12 12 12 11 11 11 11 11 12 12 12 13
19 20 21 22 23 23 24 24 24 24 24 24 23 22 22 22 21 20 19 19 19 18 17 16 16 16 16 15 15 14 13 12 12 11 11 11 11 11 11 11 11 11 11 11
18 19 19 19 20 21 22 22 22 22 23 22 21 21 21 20 20 19 19 18 18 17 16 16 16 15 15 14 14 14 13 12 12 11 10 10 10 10 9 9 9 9 9 9
18 18 17 17 18 18 19 19 19 19 20 19 19 19 19 19 19 18 18 17 16 16 15 15 15 15 14 14 14 14 13 12 12 11 11 10 10 9 9 8 8 8 8 8
16 16 16 16 16 16 17 16 16 16 17 17 17 16 16 17 17 17 16 16 16 15 15 15 14 14 13 13 13 13 13 12 12 11 11 10 9 9 8 8 8 8 8 8
15 15 16 16 16 15 15 15 14 15 15 15 15 15 15 16 16 16 15 15 15 15 15 15 15 14 13 13 12 12 12 12 12 11 10 10 9 9 8 9 9 9 9 9
15 15 15 14 14 14 13 13 13 13 14 14 14 15 15 15 15 15 15 15 14 14 14 14 14 13 12 12 11 11 11 11 11 10 10 10 9 8 8 8 9 10 9 9
14 14 13 13 13 12 12 12 12 12 12 13 13 13 13 14 14 14 14 14 14 13 13 13 13 12 11 11 10 10 10 10 10 10 10 10 10 9 9 9 10 10 9 9
12 12 12 12 11 11 11 11 11 11 11 11 12 12 12 12 13 13 13 13 13 13 12 12 11 11 11 10 10 9 9 9 10 10 10 10 10 10 10 10 11 11 11 11
Wind_Direction
251 253 254 255 256 257 258 260 263 264 263 262 263 265 266 268 269 269 269 270 269 270 270 271 272 272 274 274 275 277 277 277 276 277 276 276 276 277 277 278 278 278 276 275
250 252 254 255 256 258 259 261 263 264 264 262 263 264 264 266 267 267 268 270 270 271 271 272 272 273 274 274 275 276 275 275 276 276 276 276 277 277 278 279 280 278 277 275
252 252 255 256 257 258 260 261 262 264 264 263 263 263 264 265 267 267 267 269 270 272 272 273 273 273 273 275 276 276 275 275 275 277 278 278 278 278 279 280 280 279 277 274
255 254 255 257 256 258 259 260 261 263 264 263 262 262 263 265 266 266 268 269 270 271 272 273 273 273 274 275 275 275 275 276 277 279 278 277 277 278 278 278 279 279 276 274
256 256 257 257 257 258 259 260 261 263 264 264 263 262 262 264 265 267 268 268 270 271 271 272 273 273 274 274 273 273 274 277 278 278 276 276 277 279 279 277 278 277 275 273
256 258 259 258 256 257 259 261 262 263 263 264 265 264 263 264 264 266 267 268 269 270 271 272 273 273 273 273 273 273 275 277 277 277 277 276 277 278 277 277 275 274 274 272
255 257 259 258 258 258 260 262 262 263 263 264 265 265 264 263 264 265 266 267 268 269 271 272 273 273 274 273 274 275 275 276 277 277 277 277 277 277 277 276 274 273 273 271
254 255 257 257 257 257 259 261 262 262 262 263 265 265 265 264 265 266 267 267 268 269 270 272 272 273 274 274 274 274 275 276 276 276 276 276 276 276 274 273 272 272 272 271
256 257 258 257 257 257 258 258 257 259 260 262 264 265 265 266 266 267 269 269 270 270 271 272 273 272 272 273 274 274 275 275 276 275 275 275 275 274 272 272 270 270 271 269
258 258 258 259 259 258 256 255 256 258 260 262 264 265 266 267 268 269 270 271 272 272 273 274 273 272 273 273 275 276 277 276 274 274 273 272 273 273 272 271 270 270 269 266
259 259 260 259 258 257 256 255 256 258 260 263 265 266 267 269 270 270 270 270 271 272 272 272 271 272 273 274 274 276 277 276 275 273 271 270 270 271 271 270 270 268 266 266
258 258 258 258 257 255 255 255 257 259 261 264 266 267 268 269 269 269 269 269 269 270 271 271 271 271 272 273 274 275 275 274 274 272 271 271 270 270 271 270 268 266 265 265
258 259 259 259 257 255 255 255 257 259 262 265 267 268 269 269 269 270 270 270 270 271 271 271 271 271 271 273 275 275 273 273 273 272 270 270 268 268 267 266 264 265 265 265
258 259 260 259 258 257 256 256 257 259 261 265 267 267 267 266 267 269 269 269 270 270 270 271 271 272 273 274 274 273 274 275 274 272 270 269 267 266 265 264 264 263 263 263
259 259 260 258 258 259 259 258 258 260 263 266 268 267 267 267 267 268 268 267 268 269 270 271 271 272 273 273 273 275 276 276 273 272 270 269 266 265 264 264 264 263 260 259
262 261 259 257 256 258 260 261 260 263 266 267 268 268 267 267 268 268 267 267 267 268 269 271 272 272 272 272 274 277 278 276 273 271 270 270 269 266 265 264 264 261 258 256
264 261 258 258 258 260 262 264 263 264 265 265 266 266 266 266 266 268 268 269 269 268 268 268 270 271 271 271 274 276 277 275 273 272 270 270 269 267 264 260 259 259 257 255
267 265 263 263 263 264 265 268 267 265 265 266 266 267 267 267 267 267 268 268 269 268 267 266 265 266 269 271 272 273 273 271 270 270 269 269 268 266 263 260 260 257 254 253
271 269 268 268 268 268 268 269 268 265 264 265 265 266 265 266 266 267 265 265 265 264 263 262 262 263 266 268 270 271 270 268 267 268 270 270 266 263 262 261 259 256 253 252
273 271 271 270 269 269 269 270 268 264 263 263 263 263 262 262 264 265 263 262 262 261 258 258 260 263 264 266 267 266 266 265 265 267 268 267 265 261 260 258 255 253 251 248
275 274 273 273 272 272 272 271 269 265 262 262 261 260 260 260 261 262 260 260 258 257 254 254 257 260 261 263 264 263 262 261 260 261 263 265 264 261 256 253 249 246 244 240
277 274 273 273 273 273 273 271 268 265 261 260 259 258 257 256 257 257 255 254 251 251 251 252 254 256 259 261 261 260 260 258 256 257 259 263 262 256 254 251 243 238 232 230
277 275 275 275 275 274 274 272 268 265 261 258 255 254 253 253 252 251 249 247 247 248 249 251 253 256 258 260 260 259 256 252 252 256 258 259 257 249 246 242 236 229 223 224
276 276 277 278 276 275 274 272 268 264 260 255 253 253 253 251 251 249 246 245 245 246 248 250 252 253 255 257 257 255 251 248 248 249 248 246 243 243 240 233 228 223 220 220
276 277 277 276 276 275 273 271 269 265 260 256 254 253 252 250 247 245 245 245 243 242 245 247 248 249 251 254 255 251 244 241 241 239 235 233 236 236 232 227 219 215 216 217
278 278 276 275 276 276 274 272 270 266 260 255 253 252 250 246 243 241 241 240 238 239 242 243 242 243 246 249 248 244 239 234 232 230 227 227 228 228 226 222 215 214 216 214
278 278 276 276 276 277 276 273 269 265 259 254 252 251 248 243 238 237 237 236 236 237 238 238 237 239 241 241 240 236 232 227 223 222 222 221 221 222 224 221 216 215 215 214
Height
5529 5531 5533 5536 5539 5541 5541 5542 5543 5546 5548 5551 5550 5550 5550 5550 5550 5550 5551 5551 5550 5550 5550 5549 5548 5546 5545 5544 5542 5541 5539 5537 5536 5534 5532 5530 5529 5527 5526 5524 5523 5521 5520 5519
5519 5521 5522 5524 5528 5530 5531 5532 5533 5534 5537 5539 5539 5539 5540 5540 5540 5541 5541 5540 5540 5540 5540 5539 5537 5536 5535 5534 5532 5530 5529 5528 5526 5524 5523 5521 5519 5518 5516 5514 5513 5511 5510 5509
5508 5511 5511 5515 5519 5520 5521 5522 5523 5524 5528 5528 5528 5529 5530 5531 5531 5531 5531 5530 5530 5530 5529 5528 5527 5526 5525 5524 5522 5521 5520 5518 5517 5515 5514 5512 5510 5508 5506 5505 5503 5502 5500 5499
5497 5500 5501 5508 5509 5510 5511 5512 5513 5514 5516 5517 5518 5519 5520 5521 5521 5521 5521 5520 5520 5519 5519 5518 5517 5516 5515 5514 5513 5511 5510 5509 5507 5506 5504 5502 5500 5498 5497 5495 5494 5492 5491 5490
5487 5488 5491 5497 5499 5500 5501 5502 5503 5504 5505 5506 5507 5508 5510 5510 5510 5510 5510 5510 5510 5509 5508 5507 5507 5506 5505 5504 5503 5502 5501 5499 5498 5496 5494 5493 5491 5490 5488 5487 5486 5484 5482 5482
5477 5478 5481 5487 5489 5489 5491 5492 5494 5494 5495 5496 5496 5498 5501 5500 5500 5500 5500 5500 5500 5499 5498 5498 5497 5496 5495 5494 5494 5493 5492 5490 5489 5487 5485 5484 5483 5481 5480 5478 5477 5476 5475 5474
5468 5469 5472 5477 5478 5480 5483 5483 5484 5484 5485 5486 5487 5488 5490 5490 5490 5490 5490 5490 5490 5490 5489 5488 5487 5486 5486 5485 5484 5483 5482 5481 5480 5478 5476 5475 5474 5473 5471 5470 5469 5468 5468 5467
5460 5461 5466 5467 5468 5471 5471 5472 5474 5475 5476 5477 5478 5478 5479 5479 5480 5480 5480 5480 5480 5480 5479 5478 5477 5477 5476 5475 5475 5474 5473 5472 5471 5469 5467 5466 5465 5464 5463 5462 5461 5461 5461 5460
5453 5455 5456 5457 5459 5460 5462 5463 5464 5465 5467 5468 5468 5469 5469 5470 5470 5470 5471 5471 5470 5470 5470 5469 5468 5467 5467 5466 5465 5465 5464 5463 5462 5460 5459 5458 5457 5456 5455 5454 5454 5453 5453 5453
5444 5446 5447 5448 5449 5451 5452 5454 5455 5456 5458 5459 5459 5460 5460 5461 5461 5461 5461 5461 5461 5461 5460 5460 5459 5458 5458 5457 5457 5456 5455 5454 5452 5451 5450 5449 5449 5448 5447 5446 5446 5446 5446 5446
5436 5438 5439 5440 5441 5442 5444 5445 5447 5448 5449 5450 5451 5451 5452 5452 5452 5452 5452 5452 5451 5451 5451 5451 5450 5450 5449 5448 5448 5447 5446 5445 5444 5443 5442 5442 5441 5440 5439 5439 5439 5439 5439 5439
5429 5430 5431 5433 5433 5435 5436 5437 5438 5440 5441 5442 5442 5443 5443 5443 5443 5443 5443 5443 5442 5442 5442 5442 5442 5441 5440 5440 5440 5439 5438 5437 5436 5435 5435 5434 5433 5433 5432 5432 5432 5432 5432 5432
5421 5422 5424 5425 5426 5427 5428 5429 5430 5432 5433 5434 5434 5435 5435 5435 5435 5435 5435 5434 5434 5434 5434 5434 5433 5433 5432 5432 5431 5430 5430 5429 5428 5428 5427 5426 5426 5426 5426 5426 5425 5425 5426 5426
5414 5415 5417 5418 5419 5420 5421 5422 5423 5424 5425 5426 5426 5427 5427 5427 5427 5427 5427 5427 5427 5427 5426 5426 5426 5425 5424 5424 5423 5423 5422 5421 5421 5420 5419 5419 5419 5419 5419 5420 5420 5420 5420 5421
5408 5408 5410 5411 5412 5413 5414 5415 5416 5417 5418 5418 5419 5419 5419 5419 5419 5420 5420 5420 5420 5420 5419 5419 5419 5418 5417 5417 5416 5416 5415 5414 5413 5413 5412 5412 5412 5412 5413 5413 5413 5414 5415 5416
5401 5402 5403 5404 5405 5406 5406 5407 5408 5409 5410 5411 5411 5411 5411 5412 5412 5412 5412 5412 5412 5412 5412 5412 5412 5411 5411 5410 5410 5409 5408 5407 5407 5407 5407 5406 5406 5406 5406 5407 5408 5408 5409 5410
5395 5395 5396 5397 5398 5398 5399 5399 5400 5401 5402 5403 5403 5403 5404 5404 5405 5405 5405 5405 5405 5405 5405 5405 5405 5405 5405 5404 5404 5403 5402 5402 5401 5401 5401 5401 5401 5401 5401 5402 5403 5404 5405 5406
5389 5389 5389 5390 5390 5391 5391 5392 5392 5393 5394 5394 5395 5396 5396 5397 5397 5398 5398 5398 5398 5399 5399 5399 5399 5399 5399 5399 5398 5398 5397 5397 5397 5397 5397 5397 5396 5397 5397 5398 5398 5399 5401 5402
5382 5382 5383 5383 5383 5384 5384 5384 5384 5385 5386 5387 5387 5388 5389 5390 5390 5390 5391 5391 5392 5392 5393 5393 5393 5393 5394 5394 5393 5393 5393 5392 5392 5392 5393 5393 5393 5393 5394 5394 5395 5396 5397 5398
5377 5376 5376 5376 5376 5376 5377 5377 5377 5378 5378 5379 5380 5381 5382 5382 5383 5384 5384 5385 5386 5386 5387 5387 5388 5388 5389 5389 5389 5389 5389 5389 5389 5389 5389 5389 5390 5390 5390 5391 5392 5393 5394 5395
5371 5371 5370 5370 5370 5370 5370 5370 5370 5371 5371 5372 5373 5374 5375 5376 5377 5377 5378 5379 5380 5381 5382 5382 5383 5383 5384 5384 5384 5384 5385 5385 5385 5386 5386 5386 5387 5387 5388 5388 5389 5390 5391 5392
5366 5365 5365 5365 5364 5364 5364 5364 5364 5364 5365 5366 5367 5367 5368 5370 5370 5371 5372 5373 5375 5375 5377 5378 5378 5379 5379 5380 5380 5380 5381 5381 5382 5382 5383 5383 5384 5385 5385 5386 5387 5388 5389 5391
5361 5360 5360 5360 5359 5359 5359 5358 5358 5359 5359 5360 5361 5362 5363 5364 5365 5366 5367 5368 5369 5370 5372 5373 5373 5374 5375 5375 5375 5376 5377 5377 5378 5379 5380 5381 5381 5382 5383 5384 5385 5386 5388 5389
5356 5356 5356 5355 5354 5354 5354 5353 5353 5353 5354 5355 5356 5356 5357 5358 5359 5360 5362 5363 5364 5365 5367 5368 5369 5369 5370 5371 5371 5372 5372 5373 5375 5376 5377 5378 5379 5380 5381 5382 5384 5385 5386 5388
5352 5351 5351 5350 5350 5349 5349 5349 5349 5349 5349 5350 5351 5351 5352 5353 5354 5355 5357 5358 5359 5361 5362 5363 5364 5365 5366 5367 5367 5368 5369 5370 5371 5372 5374 5375 5377 5378 5379 5380 5381 5383 5385 5386
5347 5347 5346 5346 5346 5345 5345 5345 5345 5345 5345 5346 5346 5347 5348 5348 5349 5351 5352 5353 5355 5356 5358 5359 5360 5361 5362 5363 5364 5364 5365 5367 5368 5369 5371 5372 5374 5375 5377 5378 5379 5381 5383 5385
5343 5343 5343 5342 5342 5341 5341 5341 5341 5341 5341 5342 5342 5343 5343 5344 5345 5346 5348 5349 5351 5352 5354 5355 5356 5357 5358 5359 5360 5362 5363 5364 5365 5367 5368 5370 5371 5373 5374 5376 5377 5379 5381 5383